Regional Weather Roundup
Issued by NWS

Home | Current Version | Previous Version | Graphics & Text | Print | Product List | Glossary On
Versions: 1 2 3 4 5 6 7 8 9 10 11 12 13 14 15 16 17 18 19 20 21 22 23 24 25 26 27 28 29 30 31 32 33 34 35 36 37 38 39 40 41 42 43 44 45 46 47 48 49 50
000
ASUS43 KIND 222009
RWRIN

WEATHER ROUNDUP FOR INDIANA
NATIONAL WEATHER SERVICE INDIANAPOLIS IN
400 PM EDT SUN APR 22 2018

NOTE: "FAIR" INDICATES FEW OR NO CLOUDS BELOW 12,000 FEET WITH NO
SIGNIFICANT WEATHER AND/OR OBSTRUCTIONS TO VISIBILITY.

* - STATION DOES NOT REPORT WEATHER SUCH AS PRECIPITATION OR FOG.

+ - STATION NOT QUALITY CONTROLLED BY THE NATIONAL WEATHER SERVICE.
    USE DATA WITH CAUTION...ESPECIALLY DEWPOINT AND RELATIVE
    HUMIDITY OBSERVATIONS.

INZ001>003-010>013-019-020-222100-
NORTHWEST INDIANA

CITY           SKY/WX    TMP DP  RH WIND       PRES   REMARKS
GARY /AIRPORT/ PTSUNNY   55  30  38 NE14      30.28F
KNOX *+        FAIR      64  27  24 E18       30.25F
LA PORTE +     FAIR      65  26  22 E15G21    30.27F
MICHIGAN CITY+ FAIR      63  27  25 E8G17     30.27F
MONTICELLO +   FAIR      65  21  19 SE12G20   30.23F
RENSSELAER +   FAIR      68 -15   3 E17G28    30.23F
VALPARAISO     FAIR      66  21  18 E20G25    30.26F

$$

LMZ046-743>745-222100-
SOUTHERN LAKE MICHIGAN

STATION/POSITION TIME  TEMP    WIND        PRES    WAVE
                       AIR SEA DIR/SP/G            HT
                 (UTC) (F)     (DEG/KT/KT) (MB)    (FT)
BURNS HARBOR     1940   46      60/  9/ 12 1025.7F
MICHIGAN CITY    1940   44      10/ 15/ 15   N/A

$$

INZ004-005-014>016-021>024-222100-
NORTH CENTRAL INDIANA

CITY           SKY/WX    TMP DP  RH WIND       PRES   REMARKS
ELKHART        FAIR      64  21  19 E12G20    30.28F
GOSHEN         FAIR      63  30  28 NE16      30.28F
LOGANSPORT +   FAIR      64  30  27 E17       30.26S
PERU/GRISSOM   CLOUDY    66  21  18 E18G24    30.26F
ROCHESTER +    FAIR      64  23  20 E18       30.26F
SOUTH BEND     FAIR      62  20  19 E13       30.29F
WARSAW +       FAIR      63  28  27 E13G21    30.28F

$$

INZ006>009-017-018-025>027-222100-
NORTHEAST INDIANA

CITY           SKY/WX    TMP DP  RH WIND       PRES   REMARKS
ANGOLA *+      FAIR      59  25  27 E15G24    30.30F
AUBURN +       FAIR      61  28  29 E12G23    30.29F
FORT WAYNE     PTSUNNY   63  30  28 E16G22    30.29F
HUNTINGTON +   FAIR      63  22  20 E13G21    30.26F

$$

INZ028-029-035-036-043>045-051>053-222100-
WEST CENTRAL INDIANA

CITY           SKY/WX    TMP DP  RH WIND       PRES   REMARKS
CRAWFORDSVL +  FAIR      64  31  28 E13G21    30.19F
GREENCASTLE +  FAIR      61  32  33 E12G17    30.19F
LAFAYETTE      FAIR      65  30  27 E14G23    30.21F
TERRE HAUTE    FAIR      66  37  34 E15       30.15F

$$

INZ030>032-037>040-046>048-054>057-064-065-222100-
CENTRAL INDIANA

CITY           SKY/WX    TMP DP  RH WIND       PRES   REMARKS
COLUMBUS       SUNNY     66 N/A N/A E17       30.19F
FISHERS *+     FAIR      64  34  32 E10G17    30.21F
FRANKFORT +    FAIR      68  28  22 E16G23    30.23F
GREENWOOD *+   FAIR      63  28  26 E15       30.21F
INDIANAPOLIS   CLOUDY    65  26  23 E14       30.20F
-EAGLE CREEK   FAIR      65  27  23 E13       30.20F
KOKOMO +       FAIR      64  29  26 E15G24    30.25F
MARION +       FAIR      63  29  27 E14G24    30.25S
MT COMFORT *+  FAIR      66  34  30 E13G21    30.21F
SHELBYVILLE    FAIR      66  26  22 E17       30.20F
ZIONSVILLE +   FAIR      64  30  27 E15G21    30.22F

$$

INZ033-034-041-042-049-050-058-059-222100-
EAST CENTRAL INDIANA

CITY           SKY/WX    TMP DP  RH WIND       PRES   REMARKS
MUNCIE         FAIR      65  32  29 E17G23    30.24F
RICHMOND +     FAIR      63  30  29 E12       30.23F

$$

INZ060-061-067>069-081>083-085>088-222100-
SOUTHWEST INDIANA

CITY           SKY/WX    TMP DP  RH WIND       PRES   REMARKS
EVANSVILLE     LGT RAIN  68  49  50 SE13G21   30.08F
HUNTINGBURG +  PTSUNNY   69  46  43 SE15      30.10F
WASHINGTON +   FAIR      70  37  29 E15       30.12F

$$

INZ062-063-066-070>080-084-089>092-222100-
SOUTH CENTRAL AND SOUTHEAST INDIANA

CITY           SKY/WX    TMP DP  RH WIND       PRES   REMARKS
BATESVILLE +   SUNNY     61  32  33 MISG      30.21F
BLOOMINGTON    FAIR      67  31  26 E14       30.15F
FRENCH LICK *+ FAIR      68  30  24 E12       30.13F
MADISON *+     FAIR      64  28  25 E8G17     30.20F
NORTH VERNON + FAIR      64  30  27 E13G18    30.18F
SEYMOUR +      FAIR      70  37  30 E12       30.17F

$$




USA.gov is the U.S. government's official web portal to all federal, state and local government web resources and services.